Weather History for KPPO - September, 2013

Change the Weather History Date:

Saturday, September 28, 2013

  Actual Average (KVPZ) Record (KVPZ)
Temperature  
Mean Temperature 63 °F 59 °F  
Max Temperature 80 °F 70 °F 84 °F (2013)
Min Temperature 46 °F 48 °F 39 °F (2000)
Degree Days  
Heating Degree Days 2 8  
Month to date heating degree days 98  
Since 1 July heating degree days 115  
Cooling Degree Days 0 1  
Month to date cooling degree days 63  
Year to date cooling degree days 699  
Growing Degree Days 13 (Base 50)    
Moisture  
Dew Point 52 °F    
Average Humidity 66    
Maximum Humidity 100    
Minimum Humidity 36    
Precipitation  
Precipitation 0.00 in 0.11 in 0.78 in (1999)
Month to date precipitation 2.98  
Year to date precipitation 28.52  
Sea Level Pressure  
Sea Level Pressure 30.06 in    
Wind  
Wind Speed 6 mph (SSE)    
Max Wind Speed 16 mph    
Max Gust Speed 21 mph    
Visibility 10 miles    
Events      
T = Trace of Precipitation, MM = Missing Value Source: NWS Daily Summary

Daily Weather History Graph

Daily Weather History Graph

Search for Another Location

Airport or City:

Trip Planner

Search our weather history database for the weather conditions in past years. The results will help you decide how hot, cold, wet, or windy it might be!

Date:

Astronomy

Sep. 28, 2013 Rise Set
Actual Time 6:40 AM CDT 6:33 PM CDT
Civil Twilight 6:13 AM CDT 7:00 PM CDT
Nautical Twilight 5:40 AM CDT 7:33 PM CDT
Astronomical Twilight 5:08 AM CDT 8:05 PM CDT
Moon 12:23 AM CDT (9/28) 2:55 PM CDT (9/28)
Length of Visible Light 12h 47m
Length of Day
11h 52m
Waning Crescent, 36% of the Moon is Illuminated
Sep 28
Waning Crescent
Oct 4
New
Oct 11
First Quarter
Oct 18
Full
Oct 26
Last Quarter

Hourly Weather History & Observations

Time (CDT) Temp. Windchill Dew Point Humidity Pressure Visibility Wind Dir Wind Speed Gust Speed Precip Events Conditions
12:15 AM 57.4 °F - 49.6 °F 75% 30.14 in 10.0 mi ESE 4.6 mph - N/A   Clear
12:35 AM 55.8 °F - 49.6 °F 80% 30.13 in 10.0 mi ESE 4.6 mph - N/A   Clear
12:55 AM 54.9 °F - 50.0 °F 84% 30.13 in 10.0 mi ESE 3.5 mph - N/A   Clear
1:15 AM 53.1 °F - 49.5 °F 88% 30.14 in 10.0 mi East 3.5 mph - N/A   Clear
1:35 AM 51.8 °F - 48.9 °F 90% 30.13 in 10.0 mi East 4.6 mph - N/A   Clear
1:55 AM 51.4 °F - 49.1 °F 92% 30.13 in 10.0 mi East 4.6 mph - N/A   Clear
2:15 AM 51.1 °F - 49.1 °F 93% 30.12 in 10.0 mi East 5.8 mph - N/A   Clear
2:35 AM 50.4 °F - 48.4 °F 93% 30.12 in 10.0 mi East 4.6 mph - N/A   Clear
2:55 AM 49.5 °F - 48.2 °F 95% 30.12 in 10.0 mi ESE 4.6 mph - N/A   Clear
3:15 AM 49.1 °F - 47.8 °F 95% 30.12 in 10.0 mi ESE 3.5 mph - N/A   Clear
3:35 AM 49.5 °F - 48.6 °F 97% 30.12 in 10.0 mi ESE 3.5 mph - N/A   Clear
3:55 AM 49.1 °F - 48.0 °F 96% 30.12 in 10.0 mi Calm Calm - N/A   Clear
4:15 AM 49.1 °F - 48.2 °F 97% 30.12 in 10.0 mi ESE 3.5 mph - N/A   Clear
4:35 AM 49.6 °F - 48.7 °F 97% 30.13 in 10.0 mi East 3.5 mph - N/A   Clear
4:55 AM 48.0 °F - 47.1 °F 97% 30.13 in 10.0 mi East 3.5 mph - N/A   Clear
5:15 AM 50.0 °F - 49.6 °F 99% 30.13 in 10.0 mi East 4.6 mph - N/A   Clear
5:35 AM 48.2 °F - 47.7 °F 98% 30.13 in 10.0 mi East 4.6 mph - N/A   Clear
5:55 AM 46.6 °F - 46.2 °F 99% 30.13 in 7.0 mi East 4.6 mph - N/A   Clear
6:15 AM 47.1 °F - 46.8 °F 99% 30.13 in 10.0 mi East 4.6 mph - N/A   Clear
6:35 AM 46.6 °F - 46.6 °F 100% 30.13 in 10.0 mi East 3.5 mph - N/A   Clear
6:55 AM 46.4 °F 44.3 °F 46.4 °F 100% 30.13 in 5.0 mi East 4.6 mph - N/A   Clear
7:15 AM 47.7 °F - 47.7 °F 100% 30.14 in 5.0 mi ESE 3.5 mph - N/A   Clear
7:35 AM 50.2 °F - 50.2 °F 100% 30.14 in 7.0 mi Calm Calm - N/A   Clear
7:55 AM 53.2 °F - 53.2 °F 100% 30.14 in 10.0 mi ESE 3.5 mph - N/A   Clear
8:15 AM 55.8 °F - 52.9 °F 90% 30.15 in 10.0 mi SE 3.5 mph - N/A   Clear
8:35 AM 57.9 °F - 52.7 °F 83% 30.15 in 10.0 mi SSE 4.6 mph - N/A   Clear
8:55 AM 60.4 °F - 53.1 °F 77% 30.15 in 10.0 mi SSE 6.9 mph - N/A   Clear
9:15 AM 62.6 °F - 52.9 °F 70% 30.15 in 10.0 mi South 5.8 mph - N/A   Clear
9:35 AM 64.6 °F - 53.2 °F 67% 30.14 in 10.0 mi SSE 6.9 mph - N/A   Clear
9:55 AM 66.9 °F - 54.0 °F 63% 30.14 in 10.0 mi South 5.8 mph - N/A   Clear
10:15 AM 69.4 °F - 54.0 °F 58% 30.13 in 10.0 mi South 8.1 mph - N/A   Clear
10:35 AM 71.4 °F - 54.3 °F 55% 30.12 in 10.0 mi South 8.1 mph - N/A   Clear
10:55 AM 73.2 °F - 53.8 °F 50% 30.11 in 10.0 mi South 9.2 mph - N/A   Clear
11:15 AM 74.5 °F - 53.1 °F 47% 30.11 in 10.0 mi South 11.5 mph 16.1 mph N/A   Clear
11:35 AM 74.3 °F - 52.3 °F 46% 30.10 in 10.0 mi South 11.5 mph - N/A   Clear
11:55 AM 77.0 °F - 53.2 °F 44% 30.09 in 10.0 mi SSW 11.5 mph 17.3 mph N/A   Clear
12:15 PM 77.0 °F - 50.9 °F 40% 30.09 in 10.0 mi SSW 13.8 mph 20.7 mph N/A   Clear
12:35 PM 77.5 °F - 50.9 °F 39% 30.07 in 10.0 mi South 16.1 mph 20.7 mph N/A   Clear
12:55 PM 77.7 °F - 51.4 °F 40% 30.06 in 10.0 mi South 12.7 mph 19.6 mph N/A   Clear
1:15 PM 79.0 °F - 51.8 °F 39% 30.04 in 10.0 mi South 10.4 mph 18.4 mph N/A   Clear
1:35 PM 78.6 °F - 52.2 °F 40% 30.04 in 10.0 mi South 9.2 mph 17.3 mph N/A   Clear
1:55 PM 79.2 °F - 52.7 °F 40% 30.03 in 10.0 mi South 9.2 mph - N/A   Clear
2:15 PM 79.5 °F - 52.3 °F 39% 30.02 in 10.0 mi SSW 9.2 mph 19.6 mph N/A   Clear
2:35 PM 80.6 °F - 52.9 °F 38% 30.02 in 10.0 mi South 10.4 mph - N/A   Scattered Clouds
2:55 PM 78.8 °F - 53.1 °F 41% 30.01 in 10.0 mi South 9.2 mph 18.4 mph N/A   Scattered Clouds
3:15 PM 78.8 °F - 52.9 °F 40% 30.01 in 10.0 mi South 6.9 mph 17.3 mph N/A   Scattered Clouds
3:35 PM 80.2 °F - 51.8 °F 37% 30.01 in 10.0 mi South 15.0 mph 19.6 mph N/A   Scattered Clouds
3:55 PM 80.2 °F - 52.5 °F 38% 30.00 in 10.0 mi South 8.1 mph 17.3 mph N/A   Scattered Clouds
4:15 PM 80.1 °F - 50.9 °F 36% 30.00 in 10.0 mi SW 15.0 mph - N/A   Scattered Clouds
4:35 PM 80.2 °F - 50.9 °F 36% 29.99 in 10.0 mi South 12.7 mph 19.6 mph N/A   Scattered Clouds
4:55 PM 79.7 °F - 51.1 °F 37% 29.99 in 10.0 mi South 9.2 mph 18.4 mph N/A   Scattered Clouds
5:15 PM 79.2 °F - 52.5 °F 39% 29.98 in 10.0 mi South 9.2 mph - N/A   Scattered Clouds
5:35 PM 78.6 °F - 53.1 °F 41% 29.98 in 10.0 mi South 5.8 mph 9.2 mph N/A   Scattered Clouds
5:55 PM 76.6 °F - 53.6 °F 45% 29.98 in 10.0 mi SSE 8.1 mph - N/A   Clear
6:15 PM 75.2 °F - 54.3 °F 48% 29.97 in 10.0 mi SSE 5.8 mph - N/A   Clear
6:35 PM 73.8 °F - 54.5 °F 51% 29.97 in 10.0 mi South 6.9 mph - N/A   Clear
6:55 PM 72.7 °F - 54.9 °F 53% 29.97 in 10.0 mi South 6.9 mph - N/A   Clear
7:15 PM 72.1 °F - 54.9 °F 54% 29.97 in 10.0 mi South 6.9 mph - N/A   Clear
7:35 PM 72.0 °F - 54.7 °F 54% 29.97 in 10.0 mi South 8.1 mph - N/A   Clear
7:55 PM 71.2 °F - 54.7 °F 56% 29.97 in 10.0 mi South 6.9 mph - N/A   Clear
8:15 PM 70.9 °F - 54.5 °F 56% 29.98 in 10.0 mi South 5.8 mph - N/A   Clear
8:35 PM 70.7 °F - 54.1 °F 56% 29.98 in 10.0 mi South 5.8 mph - N/A   Clear
8:55 PM 70.0 °F - 54.0 °F 57% 29.98 in 10.0 mi South 5.8 mph - N/A   Clear
9:15 PM 69.8 °F - 54.1 °F 57% 29.99 in 10.0 mi South 6.9 mph - N/A   Clear
9:35 PM 69.8 °F - 54.5 °F 58% 29.99 in 10.0 mi South 5.8 mph - N/A   Mostly Cloudy
9:55 PM 69.8 °F - 54.5 °F 58% 29.99 in 10.0 mi South 4.6 mph - N/A   Overcast
10:15 PM 69.8 °F - 54.5 °F 58% 29.98 in 10.0 mi South 5.8 mph - N/A   Overcast
10:35 PM 69.8 °F - 54.5 °F 58% 29.98 in 10.0 mi SSW 4.6 mph - N/A   Overcast
10:55 PM 69.8 °F - 54.5 °F 58% 29.98 in 10.0 mi South 6.9 mph - N/A   Overcast
11:15 PM 70.0 °F - 54.3 °F 57% 29.98 in 10.0 mi SSW 9.2 mph - N/A   Overcast
11:35 PM 70.0 °F - 54.1 °F 57% 29.97 in 10.0 mi SSW 8.1 mph - N/A   Overcast
11:55 PM 70.0 °F - 54.0 °F 57% 29.97 in 10.0 mi SSW 8.1 mph - N/A   Overcast